Wetbulb
59.84 59.59 59.39 59.47 59.93 60.44 60.17 60.10 59.87 59.93 59.75 59.00 60.15 59.64 59.95 60.76 60.84 61.97 56.60 63.84 64.99 71.42 71.42 68.83 66.51 68.78 68.50 64.35 67.08 66.84 62.45 59.39 59.35 59.46 61.16 64.95 61.37 65.42 67.39 65.35 67.11 67.46 66.98 69.93 72.41
59.74 59.68 59.80 59.93 60.08 60.39 60.43 59.80 59.99 59.59 59.29 58.67 59.84 59.68 60.08 60.75 60.89 57.01 66.25 66.85 70.77 72.50 65.96 64.80 64.07 64.25 62.37 61.86 66.42 64.50 63.03 60.46 63.66 63.79 62.56 64.44 64.23 63.07 65.24 64.65 64.90 65.77 69.02 71.05 71.65
59.34 59.22 59.23 59.45 59.76 59.84 59.34 60.10 59.45 59.00 58.93 58.33 59.71 59.82 60.29 61.80 58.42 59.08 68.88 70.84 72.19 72.80 63.25 62.60 60.83 61.80 59.54 64.66 64.85 64.79 62.18 64.74 64.27 64.96 65.35 64.56 64.32 64.91 65.02 62.70 64.28 64.53 67.31 69.62 70.28
59.00 58.99 58.94 58.83 58.81 58.61 58.53 58.59 58.66 58.48 58.34 58.21 59.65 60.00 60.38 62.85 54.70 62.35 69.89 74.09 74.30 67.41 60.96 59.11 59.63 59.94 60.39 61.54 65.58 62.65 65.37 65.48 65.36 65.08 65.00 63.96 65.76 64.81 65.43 65.57 66.80 67.62 68.90 69.53 69.12
58.36 58.41 58.45 58.45 57.96 57.98 57.89 57.71 57.16 57.41 57.93 58.15 59.94 60.20 62.53 57.08 56.65 64.72 73.31 71.44 65.04 62.50 59.22 59.76 59.43 61.86 61.17 61.98 64.68 63.82 64.62 65.18 65.77 65.18 64.92 65.25 64.05 64.27 64.82 67.26 68.00 68.46 68.77 68.61 68.62
57.99 58.10 58.00 58.07 58.12 57.80 57.63 56.87 56.86 56.68 57.57 58.55 60.05 60.21 62.19 53.78 59.45 67.33 68.13 61.81 61.41 61.37 59.88 60.06 59.69 63.14 61.99 63.19 64.44 65.62 64.49 64.32 65.19 64.56 65.09 63.27 62.15 63.82 64.98 67.77 66.91 67.36 67.59 68.49 68.57
57.62 57.70 57.75 57.75 58.02 57.96 57.57 56.61 56.21 56.61 57.85 59.78 60.69 62.90 59.62 56.91 63.59 66.94 65.34 61.84 61.79 61.05 59.31 60.43 64.45 61.07 64.01 63.29 66.82 64.89 61.58 63.64 64.16 64.17 63.44 64.97 60.78 59.85 65.11 66.87 65.06 66.21 67.79 68.38 69.09
57.29 57.49 57.50 57.50 57.45 56.89 56.28 55.83 56.38 58.15 59.58 60.67 61.48 62.88 55.80 61.99 65.02 63.84 62.15 59.48 60.86 60.90 60.38 61.09 62.67 63.62 64.11 66.03 64.08 60.90 61.76 58.93 62.76 63.85 64.19 63.81 56.91 62.82 65.41 64.69 65.13 64.74 66.62 67.96 69.13
57.55 57.39 57.19 57.29 56.80 55.97 55.40 55.99 59.35 60.45 60.82 61.74 63.06 60.85 55.38 64.08 60.75 63.33 62.03 59.37 59.17 60.15 60.89 62.67 64.58 63.22 63.40 59.48 58.13 59.19 54.23 55.86 59.32 64.26 63.09 62.70 59.43 64.17 64.17 64.01 63.55 64.64 66.39 66.96 68.91
57.36 57.18 57.06 57.03 55.78 55.11 55.35 56.62 62.30 61.69 62.79 63.92 62.97 58.51 59.79 56.60 61.30 62.45 62.24 60.23 57.74 57.86 57.86 58.14 60.34 59.16 59.22 56.86 52.00 52.48 53.25 54.61 56.78 61.81 62.76 61.23 61.20 63.32 64.92 62.67 63.10 64.82 66.73 66.80 66.51
57.04 56.91 56.71 56.46 55.07 54.63 57.79 63.62 61.28 60.28 59.98 59.65 59.19 57.49 57.82 62.02 64.14 61.73 61.67 60.11 59.48 57.08 54.40 57.35 54.90 53.43 56.18 57.80 57.01 55.38 54.78 53.83 57.10 61.52 61.04 61.30 61.40 62.61 64.99 64.76 63.57 65.54 66.29 66.58 67.57
56.89 56.51 56.30 55.58 54.73 54.63 58.95 56.57 59.40 59.85 55.71 60.29 60.75 59.81 60.40 61.18 58.51 61.07 62.43 58.84 57.53 53.25 55.57 54.57 52.44 56.23 56.54 56.18 55.99 56.00 54.51 53.44 57.05 61.37 61.45 60.63 60.68 63.59 64.61 65.28 64.99 65.53 66.07 66.80 67.46
56.53 56.34 55.96 54.64 54.30 56.93 60.81 59.77 62.72 62.46 56.09 55.82 58.03 58.23 59.52 60.42 57.76 59.06 60.90 59.59 56.90 54.00 53.45 51.99 53.65 56.08 54.85 54.85 54.02 55.34 53.99 52.64 52.22 58.02 61.59 60.70 59.42 61.36 64.88 65.92 66.17 66.71 66.97 67.48 67.73
56.25 56.12 55.25 53.67 54.94 61.76 60.77 61.25 62.74 62.21 51.85 52.48 53.43 56.29 58.42 58.88 56.23 61.04 62.31 59.98 57.02 53.87 53.90 53.24 55.56 53.52 53.41 53.13 55.12 52.73 55.07 53.25 52.54 56.25 53.16 60.10 51.66 57.20 61.57 63.65 65.04 65.71 66.25 65.24 67.27
56.01 55.58 54.11 53.28 58.73 60.57 61.11 63.33 62.93 60.02 44.07 52.28 54.73 60.76 58.63 56.44 57.88 57.88 62.41 59.80 55.11 53.63 53.95 51.78 52.32 52.43 51.60 53.30 54.18 52.36 56.16 54.88 55.38 55.87 55.32 56.48 53.94 57.29 60.90 60.17 63.00 65.74 66.63 66.93 67.51
55.46 54.64 53.77 56.12 59.40 62.04 62.77 62.99 59.96 49.91 43.48 51.41 55.68 54.84 54.26 55.46 56.51 56.70 57.61 59.91 57.96 53.67 53.48 52.46 54.34 52.15 52.88 55.36 55.34 54.27 56.01 56.90 57.62 55.71 49.71 54.02 53.12 53.79 56.69 59.23 61.84 64.27 66.39 67.10 67.39
53.89 52.48 53.91 59.31 60.99 63.02 63.06 59.26 49.87 46.19 50.90 49.87 51.64 54.35 53.65 53.24 54.08 54.84 54.63 53.75 50.92 47.99 48.36 50.62 50.78 53.10 53.70 52.07 53.94 54.50 53.14 48.56 47.86 49.02 47.74 54.64 52.46 55.05 57.83 60.46 61.96 62.88 65.03 67.45 67.60
52.03 50.88 55.08 60.15 63.07 61.90 62.06 53.83 46.50 48.28 48.22 52.75 52.16 52.15 51.47 54.10 54.56 53.67 53.36 51.86 53.89 52.22 49.73 47.50 45.52 50.57 53.41 52.40 52.58 52.76 52.46 48.17 42.82 44.70 48.11 54.24 49.73 54.69 59.64 62.03 64.09 64.99 65.44 67.53 67.73
51.28 62.18 63.64 63.29 63.77 62.46 57.75 49.43 51.11 49.74 51.31 50.97 51.84 49.51 51.41 53.07 52.97 53.74 53.24 52.59 54.02 53.94 49.43 48.52 47.73 52.65 53.01 54.59 54.63 52.24 50.49 53.51 49.04 49.93 47.04 50.13 52.84 57.63 59.65 61.27 63.11 64.08 65.07 66.48 67.55
62.09 63.83 61.32 63.21 63.42 60.64 55.21 48.53 50.48 52.85 54.25 53.20 48.46 50.54 49.14 51.96 51.65 52.77 52.68 54.49 53.65 55.18 55.57 52.55 48.23 52.35 52.65 54.42 54.20 53.28 55.11 48.91 49.51 43.99 43.34 48.23 50.65 53.61 56.73 60.00 63.11 63.59 64.61 66.60 67.95
61.63 60.74 62.94 64.33 62.58 58.56 52.89 53.05 52.42 55.74 55.96 53.10 50.75 49.79 50.67 50.70 52.32 52.64 52.95 55.00 54.94 55.29 56.14 54.20 52.05 51.08 52.09 50.87 51.42 51.64 50.89 51.52 51.35 50.06 46.09 45.52 50.44 57.43 57.71 61.27 62.67 64.25 66.31 67.36 67.77
61.83 57.50 64.15 64.35 56.86 58.07 55.49 53.93 49.26 55.34 57.20 55.81 55.18 54.06 52.85 52.68 51.87 51.72 51.36 53.85 54.37 54.16 52.16 55.46 52.88 49.61 50.71 53.46 54.65 54.32 52.90 52.68 48.60 48.22 49.96 49.64 50.14 59.19 61.41 63.68 64.66 65.29 66.75 67.99 68.84
60.17 60.16 65.79 63.14 54.12 55.77 55.41 54.31 55.18 54.91 55.30 55.08 54.25 54.95 55.65 53.49 50.95 53.12 53.50 56.14 55.67 54.45 53.14 54.88 51.30 48.08 49.03 51.94 53.31 51.03 52.57 53.12 53.12 52.38 50.22 47.79 50.24 62.10 62.56 63.71 65.08 65.07 67.25 68.77 69.42
59.31 55.86 60.13 61.39 59.84 54.87 53.46 53.38 52.71 55.67 55.41 55.85 55.60 56.41 54.97 53.99 55.12 52.78 53.33 54.74 55.27 55.52 59.33 57.46 52.16 51.13 47.68 50.12 52.13 50.37 51.56 53.01 52.21 49.43 50.05 51.11 52.63 56.67 60.39 62.21 64.63 66.04 67.00 68.68 69.45
56.09 52.85 53.17 53.92 54.62 54.40 54.49 53.45 51.68 51.82 55.41 56.18 54.59 54.03 53.47 51.90 53.18 53.21 54.20 55.43 56.78 58.66 56.84 55.01 50.50 52.62 52.43 53.02 52.87 52.15 51.97 52.07 51.27 52.31 50.37 52.30 52.81 55.96 58.60 62.27 64.83 66.70 66.81 68.26 68.94
53.55 52.73 55.88 53.25 50.80 50.89 48.65 51.94 50.93 52.44 52.68 52.77 52.53 54.01 54.41 52.20 53.58 52.46 53.95 55.06 54.05 56.17 56.09 56.40 50.38 52.70 51.51 53.25 52.79 50.71 52.28 52.88 52.79 52.82 53.46 53.71 54.00 58.91 62.83 65.93 65.89 66.07 66.32 67.90 68.66
57.05 58.10 53.94 47.29 49.96 49.64 50.70 49.37 49.53 50.29 51.97 53.47 53.29 52.15 52.28 53.50 55.60 56.72 57.35 57.30 56.96 55.31 54.74 54.54 52.93 50.92 48.19 52.56 52.55 49.68 52.54 52.88 53.61 54.18 54.21 52.36 56.43 60.56 62.80 64.67 66.57 66.54 65.78 66.96 68.51
MSLP
1017.26 1016.94 1016.59 1016.30 1016.04 1015.72 1015.43 1015.15 1014.83 1014.55 1014.38 1014.34 1014.13 1013.97 1013.86 1013.58 1013.06 1012.35 1010.15 1009.04 1009.05 1009.64 1009.82 1009.41 1009.47 1009.01 1008.77 1008.12 1008.34 1008.63 1007.53 1007.25 1007.88 1008.54 1009.11 1010.27 1010.49 1010.59 1009.95 1009.51 1009.62 1009.97 1009.89 1010.46 1011.87
1017.25 1016.94 1016.60 1016.22 1015.87 1015.61 1015.31 1015.02 1014.78 1014.47 1014.23 1014.17 1014.03 1013.91 1013.79 1013.51 1012.06 1010.15 1008.53 1009.02 1009.36 1009.55 1009.05 1008.75 1008.41 1008.50 1007.72 1007.71 1007.89 1007.71 1007.61 1007.90 1008.36 1008.63 1008.90 1009.61 1009.87 1010.18 1009.68 1009.41 1009.65 1010.23 1010.73 1011.49 1012.10
1017.24 1016.89 1016.57 1016.20 1015.76 1015.47 1015.31 1014.95 1014.66 1014.47 1014.17 1014.00 1013.81 1013.74 1013.63 1013.20 1010.88 1007.70 1008.30 1009.03 1009.40 1009.38 1008.48 1008.15 1007.94 1007.89 1007.24 1007.35 1007.45 1007.85 1007.93 1008.30 1008.47 1008.79 1009.10 1009.42 1009.73 1010.06 1009.02 1008.87 1008.89 1009.71 1010.75 1011.52 1011.93
1017.19 1016.85 1016.51 1016.18 1015.80 1015.43 1015.17 1014.93 1014.60 1014.35 1014.18 1013.94 1013.69 1013.59 1013.44 1012.26 1009.09 1007.84 1008.66 1009.10 1009.41 1008.90 1008.42 1007.95 1007.66 1007.16 1006.68 1006.55 1007.35 1007.53 1008.43 1008.62 1008.92 1009.18 1009.34 1009.62 1009.65 1009.34 1008.83 1009.05 1009.15 1009.72 1010.71 1011.27 1011.58
1017.14 1016.75 1016.39 1016.01 1015.67 1015.34 1014.97 1014.71 1014.49 1014.23 1014.01 1013.84 1013.58 1013.50 1013.18 1010.66 1007.94 1007.98 1008.80 1009.33 1009.19 1008.77 1007.96 1007.44 1007.00 1006.56 1006.21 1006.79 1007.33 1007.59 1008.38 1008.78 1009.20 1009.35 1009.36 1009.93 1009.85 1009.94 1009.65 1009.61 1009.60 1010.07 1010.69 1011.04 1011.22
1017.08 1016.67 1016.23 1015.81 1015.41 1015.10 1014.85 1014.51 1014.26 1014.02 1013.78 1013.61 1013.45 1013.40 1011.85 1009.02 1007.84 1007.98 1008.13 1008.72 1008.37 1008.22 1007.56 1007.38 1006.84 1006.90 1006.74 1007.05 1007.27 1008.09 1008.58 1008.73 1009.02 1009.39 1009.59 1009.94 1010.52 1010.42 1010.20 1010.01 1010.08 1010.33 1010.48 1010.83 1011.13
1017.11 1016.65 1016.17 1015.71 1015.23 1014.78 1014.47 1014.23 1013.95 1013.67 1013.43 1013.32 1013.33 1012.81 1010.46 1007.83 1007.95 1007.99 1008.12 1008.07 1007.95 1007.68 1007.21 1007.31 1007.24 1007.01 1007.02 1007.02 1007.95 1008.12 1008.00 1008.50 1008.85 1009.26 1009.39 1009.65 1010.10 1010.47 1010.50 1010.49 1010.63 1010.12 1010.30 1010.69 1011.07
1017.08 1016.59 1016.04 1015.58 1015.13 1014.63 1014.20 1013.85 1013.54 1013.28 1013.12 1013.11 1013.10 1011.96 1008.68 1008.08 1008.05 1008.12 1008.02 1008.10 1008.24 1008.10 1007.74 1007.72 1007.56 1007.19 1006.91 1007.58 1007.71 1007.45 1007.82 1007.30 1008.43 1009.03 1009.43 1009.66 1009.11 1009.73 1010.47 1010.59 1010.46 1010.47 1010.12 1010.59 1011.00
1016.97 1016.50 1015.97 1015.45 1014.94 1014.39 1013.91 1013.45 1013.06 1012.97 1013.00 1012.98 1012.42 1010.74 1007.55 1008.54 1007.74 1007.35 1007.57 1007.32 1007.81 1007.95 1007.97 1008.04 1007.54 1006.73 1007.14 1006.43 1005.92 1006.62 1005.99 1006.79 1007.52 1008.63 1008.85 1009.16 1008.43 1008.97 1010.31 1010.50 1010.53 1010.52 1009.85 1010.07 1010.61
1016.70 1016.22 1015.71 1015.23 1014.77 1014.18 1013.59 1013.28 1012.91 1012.74 1012.69 1012.17 1011.32 1010.02 1007.28 1006.37 1006.49 1007.03 1007.48 1007.38 1007.25 1007.52 1007.68 1007.54 1006.86 1006.35 1005.94 1005.69 1004.59 1005.59 1005.59 1006.22 1006.67 1007.43 1008.32 1008.25 1008.28 1008.51 1009.68 1009.94 1010.01 1010.05 1009.37 1009.40 1010.17
1016.47 1015.97 1015.49 1015.02 1014.61 1014.15 1013.37 1012.59 1012.33 1011.40 1010.61 1008.21 1007.54 1006.72 1006.14 1006.16 1006.59 1006.67 1007.09 1007.03 1006.80 1006.92 1006.54 1006.71 1006.19 1005.15 1004.78 1005.00 1005.46 1005.75 1005.68 1005.75 1006.11 1006.93 1007.40 1007.20 1007.17 1007.30 1008.23 1008.74 1009.32 1008.95 1008.71 1008.69 1008.81
1016.27 1015.74 1015.26 1014.77 1014.39 1013.94 1013.26 1010.65 1010.00 1009.92 1008.12 1006.96 1006.93 1006.61 1006.46 1005.95 1005.64 1006.05 1006.71 1006.50 1006.40 1005.95 1006.09 1006.16 1005.43 1004.74 1004.88 1005.54 1005.60 1005.43 1005.31 1005.23 1005.85 1006.66 1006.89 1006.13 1005.94 1006.05 1006.48 1006.84 1007.53 1007.89 1007.96 1008.09 1008.28
1016.02 1015.49 1014.97 1014.42 1014.04 1013.56 1011.67 1010.12 1009.94 1009.58 1007.76 1005.95 1005.99 1005.74 1005.61 1006.16 1005.01 1004.95 1006.09 1005.83 1005.78 1005.64 1005.61 1005.24 1004.50 1004.69 1005.23 1005.16 1005.29 1004.94 1004.75 1005.06 1005.39 1005.76 1006.03 1005.69 1004.27 1004.29 1004.86 1005.49 1006.10 1006.94 1007.39 1007.39 1007.77
1015.63 1015.25 1014.79 1014.17 1014.05 1011.78 1010.25 1010.03 1009.95 1009.80 1006.97 1005.35 1005.28 1004.86 1005.43 1005.31 1004.88 1004.91 1005.42 1005.28 1005.21 1005.20 1005.42 1005.04 1004.70 1005.11 1005.07 1004.77 1004.83 1004.35 1004.85 1005.15 1005.03 1005.07 1003.93 1004.93 1003.01 1002.86 1003.38 1004.06 1004.60 1005.19 1005.99 1006.96 1007.08
1015.13 1014.77 1014.56 1014.44 1012.82 1010.82 1010.24 1010.10 1009.83 1009.23 1005.55 1004.56 1004.60 1005.10 1004.40 1004.31 1003.95 1004.42 1004.79 1005.00 1004.73 1004.99 1005.08 1004.46 1004.64 1004.69 1004.70 1004.26 1004.61 1004.51 1005.12 1005.00 1004.77 1004.35 1004.07 1003.27 1002.99 1001.68 1002.90 1002.88 1003.16 1003.76 1004.32 1005.24 1006.15
1014.70 1014.20 1014.05 1013.33 1012.49 1010.47 1010.39 1010.03 1009.62 1007.55 1004.15 1003.71 1004.03 1004.17 1004.27 1003.93 1003.61 1004.63 1004.76 1004.92 1004.78 1004.79 1005.02 1004.43 1004.72 1004.75 1003.98 1003.95 1004.24 1004.79 1004.75 1004.64 1004.43 1003.91 1002.63 1002.13 1002.33 1000.54 1000.91 1001.70 1001.99 1002.51 1003.21 1004.09 1004.95
1014.00 1013.53 1013.41 1011.92 1010.31 1010.67 1010.29 1009.24 1007.45 1005.23 1004.30 1003.70 1003.27 1003.43 1003.15 1003.03 1003.24 1003.76 1004.00 1004.20 1003.98 1004.30 1003.88 1004.04 1003.91 1004.16 1004.16 1003.45 1004.19 1004.31 1003.44 1002.69 1002.47 1001.95 1001.15 1001.78 1001.74 1000.21 1000.43 1001.03 1001.57 1001.79 1002.20 1003.10 1004.42
1013.44 1013.04 1012.76 1011.55 1011.01 1010.82 1009.58 1008.03 1005.87 1004.83 1004.07 1004.07 1003.66 1003.32 1002.75 1002.39 1002.74 1003.04 1003.10 1003.07 1003.51 1003.34 1002.70 1002.53 1002.41 1002.82 1003.09 1003.09 1002.54 1003.11 1002.52 1001.74 1001.23 1000.89 1000.67 1001.34 1000.49 999.48 1000.33 1000.82 1001.34 1001.68 1001.98 1002.54 1003.62
1012.96 1011.60 1010.55 1010.65 1010.73 1010.58 1008.56 1006.51 1005.01 1004.96 1004.99 1004.35 1003.54 1002.94 1002.43 1002.35 1002.59 1002.36 1002.39 1002.08 1002.18 1002.76 1002.51 1001.71 1001.67 1001.68 1002.15 1002.38 1002.60 1001.99 1002.39 1001.77 1001.07 1001.07 1001.15 1000.19 999.91 999.34 999.90 1000.29 1000.96 1001.48 1001.99 1002.56 1003.32
1011.75 1010.03 1010.01 1010.36 1010.47 1009.53 1007.63 1005.86 1005.90 1006.11 1005.63 1004.90 1003.84 1003.70 1002.44 1002.15 1002.47 1002.02 1001.67 1001.44 1001.49 1001.90 1002.35 1001.52 1001.43 1001.28 1001.26 1001.91 1002.02 1001.67 1001.33 1001.32 1000.95 1000.50 1000.10 999.34 999.65 998.88 999.46 1000.00 1000.64 1001.21 1001.75 1002.59 1003.20
1011.31 1008.95 1009.74 1009.63 1009.79 1008.17 1006.63 1006.17 1006.59 1006.47 1006.24 1005.45 1004.74 1004.20 1003.58 1003.12 1002.73 1001.62 1001.27 1001.24 1001.30 1001.03 1001.57 1001.62 1001.38 1000.92 1001.38 1001.10 1000.52 1001.34 1001.03 1000.85 1000.12 999.95 999.52 998.95 998.40 999.03 999.47 999.88 1000.32 1000.83 1001.79 1002.42 1002.99
1010.64 1008.39 1009.43 1009.22 1008.05 1007.83 1006.95 1007.47 1007.70 1006.64 1006.52 1005.95 1005.85 1005.23 1004.72 1004.16 1003.49 1002.64 1001.96 1001.63 1001.92 1001.93 1001.43 1001.18 1000.70 1000.29 1000.04 999.85 1000.06 999.72 999.74 999.88 999.59 999.87 1000.04 999.22 998.60 999.08 999.72 999.91 1000.37 1000.89 1001.77 1002.48 1003.10
1010.80 1009.60 1009.14 1008.69 1007.36 1007.52 1008.07 1007.79 1007.75 1007.15 1006.84 1006.51 1006.05 1006.06 1005.66 1005.20 1004.55 1003.45 1002.92 1002.59 1002.58 1002.44 1001.53 1001.22 1001.03 999.91 999.50 999.51 1000.13 999.99 999.70 999.36 998.98 999.02 998.57 998.62 998.14 999.26 999.78 1000.04 1000.58 1000.89 1001.94 1002.88 1003.44
1011.42 1009.43 1009.13 1008.98 1009.35 1008.76 1008.60 1008.04 1007.92 1008.14 1007.67 1007.57 1007.07 1006.75 1006.31 1005.58 1005.30 1004.54 1003.70 1003.19 1003.52 1002.90 1002.80 1002.22 1000.61 999.47 998.36 997.99 998.45 999.09 998.91 998.70 998.41 998.01 997.99 997.93 997.81 998.15 998.92 999.58 1000.20 1000.93 1001.93 1002.75 1003.47
1012.44 1011.80 1012.20 1009.87 1009.61 1009.88 1009.78 1009.40 1008.77 1008.33 1008.39 1008.14 1007.49 1007.48 1007.40 1006.54 1005.51 1005.00 1004.66 1004.16 1003.79 1003.36 1002.89 1002.01 1000.67 999.88 999.22 998.21 997.83 997.60 997.67 997.90 997.95 997.73 997.16 996.83 997.22 997.65 997.83 998.94 999.90 1000.85 1001.86 1002.65 1003.34
1013.61 1013.55 1012.82 1011.80 1011.56 1010.87 1010.53 1009.67 1009.86 1009.52 1009.81 1008.51 1008.53 1008.09 1008.39 1007.80 1006.96 1006.01 1005.86 1005.26 1004.51 1004.01 1003.57 1002.41 1001.18 1000.38 999.43 998.79 998.37 998.15 997.66 997.50 997.71 997.43 997.00 996.93 996.68 997.20 997.90 998.96 999.86 1000.74 1001.54 1002.31 1003.02
1015.71 1015.31 1014.45 1012.98 1011.86 1011.41 1010.94 1011.30 1011.10 1011.51 1010.52 1010.16 1009.84 1009.76 1008.73 1008.30 1008.52 1008.01 1007.31 1006.54 1005.71 1005.13 1004.41 1003.47 1001.75 1000.83 999.51 998.64 998.28 997.66 997.22 997.14 997.24 997.21 997.27 996.70 996.81 997.01 998.22 998.84 999.59 1000.38 1001.09 1001.77 1002.63
Wind_Speed
12 11 12 12 12 12 13 12 12 13 12 10 9 8 8 9 11 7 10 2 3 14 8 10 8 7 6 4 2 3 5 5 5 2 5 9 5 4 2 8 8 4 4 12 15
13 13 13 14 13 13 12 12 12 13 12 10 8 7 7 7 9 12 3 6 9 14 13 13 9 8 5 3 3 5 3 7 6 2 1 9 8 7 8 8 7 11 13 15 13
14 14 14 14 15 14 13 13 13 12 11 10 8 6 6 9 7 4 8 9 11 14 6 6 4 8 5 4 2 2 5 7 4 3 4 8 8 5 7 6 6 12 15 14 13
14 14 14 14 15 15 15 14 13 12 10 9 8 6 5 7 5 6 6 8 12 12 8 7 7 8 6 2 2 4 3 6 4 2 5 5 6 6 3 8 8 14 14 13 12
14 14 15 14 14 15 15 15 14 13 10 7 6 5 7 9 4 4 6 10 11 11 11 8 7 5 5 4 0 4 2 3 2 3 5 3 4 3 6 6 10 14 13 12 10
15 15 15 15 15 14 15 15 14 13 9 7 5 5 7 11 4 1 10 16 13 14 9 8 4 3 3 4 4 4 2 2 2 2 4 6 2 4 3 6 9 13 12 11 9
15 16 15 16 17 17 17 16 14 11 7 6 6 6 8 3 2 4 10 13 9 11 7 4 2 6 1 4 3 3 2 2 1 3 1 4 7 5 6 7 9 12 12 10 9
16 17 17 17 18 18 18 16 12 7 4 6 7 6 7 4 2 7 8 8 7 4 3 1 4 1 4 4 5 5 4 3 5 4 3 6 4 11 8 11 10 5 11 11 9
15 16 16 17 18 18 17 13 8 5 4 7 7 8 6 6 10 11 11 8 9 6 4 4 6 4 6 11 8 5 6 5 3 6 3 8 4 5 10 9 8 10 12 12 11
16 16 16 16 18 16 11 6 7 11 7 5 4 7 7 11 12 10 9 9 7 10 9 10 8 11 10 9 6 5 8 6 4 6 9 7 11 5 14 12 12 13 13 14 12
17 17 17 16 18 16 6 5 7 7 8 8 1 5 6 7 10 12 12 12 8 13 14 14 12 15 16 8 9 8 9 8 5 1 6 9 10 7 13 15 16 16 15 16 15
18 18 17 17 16 10 7 6 5 7 8 14 12 10 4 4 11 12 11 12 12 14 14 9 18 18 3 7 8 10 9 5 1 1 8 7 12 10 15 19 19 17 16 15 14
18 18 17 18 15 4 6 5 2 8 8 5 8 11 11 9 10 16 16 18 12 15 14 19 2 10 8 13 11 13 9 8 9 3 10 11 14 7 14 18 17 20 17 16 16
19 17 15 20 5 2 4 5 6 6 7 11 9 7 10 9 13 9 15 13 11 15 15 14 17 7 10 15 10 12 8 9 9 7 4 3 6 4 7 12 19 19 20 19 19
19 17 14 6 9 5 6 4 4 6 7 6 7 6 6 18 10 13 16 13 14 13 12 13 9 15 17 13 5 6 4 6 5 8 7 12 8 8 5 8 13 17 20 21 23
19 17 10 6 5 3 4 5 5 8 5 7 6 9 12 18 8 9 13 11 7 13 13 18 8 6 15 16 11 2 5 3 5 5 11 8 7 4 5 2 3 7 16 19 21
19 16 6 2 3 1 4 5 8 8 3 5 3 7 14 15 13 11 17 18 11 12 14 16 18 16 8 12 9 12 13 9 8 9 6 6 8 7 1 2 4 5 8 18 20
20 9 6 3 3 6 7 8 8 3 2 2 2 5 10 13 17 11 16 17 19 13 8 10 15 19 16 17 12 16 15 10 6 8 5 5 6 3 5 4 0 2 4 14 20
17 4 2 4 3 5 9 10 2 3 4 5 6 7 11 11 6 15 15 18 17 18 12 8 10 9 15 15 18 10 10 13 15 8 9 10 3 13 2 6 6 4 5 11 17
3 2 6 4 3 7 9 7 0 2 5 3 6 2 6 11 13 11 13 12 18 18 21 8 8 9 14 13 12 15 11 10 11 10 9 6 4 4 4 4 9 8 7 10 13
5 3 5 6 5 7 7 1 2 1 4 4 3 5 4 4 9 11 12 12 9 13 20 20 13 6 6 17 17 12 14 13 15 5 8 10 4 6 4 5 10 9 8 9 11
5 2 4 4 5 2 4 2 0 2 2 4 6 8 10 7 10 9 10 11 3 1 9 20 11 14 17 7 12 18 22 21 11 14 12 13 8 7 2 7 7 7 8 8 8
3 3 2 5 3 3 3 2 3 4 2 3 4 3 1 8 7 12 13 10 8 10 5 8 12 12 13 14 10 12 13 16 17 16 16 10 6 6 6 7 8 8 10 9 9
4 2 3 3 2 5 3 3 6 2 6 5 7 6 7 10 9 9 10 5 6 9 8 8 17 14 13 16 16 20 19 16 18 12 12 12 15 7 9 10 12 9 12 12 11
5 5 5 3 4 5 4 2 6 5 2 4 5 2 8 8 9 12 10 11 10 3 8 10 16 14 16 20 11 11 18 17 17 17 16 12 13 8 7 9 13 13 13 14 14
5 5 1 2 4 7 5 1 7 5 5 8 8 6 10 10 13 13 8 9 7 5 10 9 13 13 14 17 13 15 17 15 17 19 16 14 9 8 9 9 14 15 16 15 15
4 1 5 3 4 5 3 4 3 5 7 8 8 10 13 8 7 14 15 16 17 15 13 13 10 16 17 17 10 15 17 16 16 15 13 15 13 8 10 14 18 17 16 16 16
Wind_Direction
357 353 347 342 336 334 335 330 330 329 325 318 314 313 314 313 292 224 241 89 164 151 221 167 201 206 220 252 239 278 263 11 30 312 105 147 173 197 83 135 63 53 73 111 141
352 350 344 340 336 335 333 330 328 327 323 319 312 303 308 312 260 249 145 135 141 163 177 184 194 199 224 231 184 267 308 3 345 337 221 167 179 210 170 147 125 99 107 126 145
348 348 345 341 337 337 335 328 327 324 322 316 308 299 300 288 257 195 116 157 173 190 219 227 244 223 250 247 126 83 1 345 9 343 140 157 159 208 183 163 124 131 139 147 152
346 344 341 340 340 334 331 330 326 323 318 308 301 292 292 243 228 84 137 148 170 211 206 207 212 229 260 297 40 266 19 349 12 143 157 147 145 190 219 73 114 125 145 151 160
345 342 340 337 337 333 330 328 326 320 311 293 285 272 249 219 258 89 172 166 181 204 216 224 244 272 300 343 243 293 34 0 52 177 165 138 159 111 143 103 127 133 148 155 148
345 341 338 333 330 329 328 324 319 312 301 275 252 245 248 238 74 53 168 171 199 206 211 227 308 354 5 9 313 77 71 49 122 150 178 149 137 174 119 135 137 154 154 157 149
344 339 334 330 328 325 324 321 313 303 282 247 219 250 253 243 63 139 162 179 193 217 222 211 267 262 243 154 130 140 255 145 130 149 151 224 186 169 149 164 158 184 167 152 162
340 337 332 331 330 326 322 316 307 287 230 200 200 241 263 107 165 183 175 173 192 208 286 174 218 213 288 129 178 242 241 327 140 189 144 249 244 189 177 176 177 203 175 173 177
336 332 329 329 330 326 319 306 293 174 165 174 216 246 233 139 206 188 195 178 176 183 161 151 231 248 198 240 212 197 341 13 146 203 158 230 324 124 165 181 185 186 199 191 182
332 329 328 329 334 331 319 281 132 158 179 213 267 231 205 208 159 166 181 179 168 167 176 212 222 231 228 248 293 340 337 0 339 153 218 217 251 145 187 189 203 207 205 202 180
329 328 329 330 335 332 277 193 202 178 208 252 133 276 141 115 150 179 174 191 175 195 211 203 231 228 239 236 305 304 298 324 12 57 236 245 249 224 187 200 204 217 205 206 200
325 326 327 330 329 310 268 260 40 0 282 219 244 254 240 304 174 168 188 204 208 214 211 195 233 245 267 279 272 273 291 328 73 297 240 277 267 241 208 213 210 209 214 212 201
323 324 325 329 326 218 279 280 36 331 257 181 210 231 214 215 210 187 198 206 213 223 202 234 190 267 224 247 250 256 266 314 319 321 245 282 262 214 216 217 211 206 220 215 208
319 322 325 325 277 14 220 142 294 283 262 143 188 189 191 214 223 221 206 202 218 238 220 246 251 216 241 240 258 271 27 304 289 255 319 250 309 242 191 214 219 215 208 204 220
317 319 322 321 327 235 72 306 311 222 260 130 144 112 162 195 113 181 194 211 233 217 211 222 217 227 239 235 209 294 326 302 278 248 291 187 262 111 168 221 221 215 213 203 208
318 315 314 195 216 296 287 304 219 228 228 137 133 180 178 208 189 133 182 217 256 228 216 255 171 268 249 238 238 264 222 221 212 270 247 110 286 205 100 21 193 202 205 205 202
325 319 229 285 51 355 280 207 222 253 114 135 149 190 205 181 185 185 187 195 200 205 221 217 237 235 238 204 188 218 234 236 219 204 265 99 272 282 308 223 257 248 204 195 195
327 305 172 285 295 290 226 212 244 41 285 90 268 248 217 193 209 193 198 208 215 227 280 214 208 212 210 228 214 208 244 264 264 270 247 152 250 84 341 149 184 239 201 185 187
314 176 153 29 251 227 223 219 341 8 349 324 259 247 192 207 258 206 218 218 209 213 235 199 230 170 211 209 227 188 230 257 285 235 263 273 245 252 208 256 178 162 152 177 186
277 212 59 27 164 239 229 242 312 324 322 280 277 317 272 199 201 206 207 222 225 209 227 245 265 204 203 217 227 264 260 212 221 268 263 221 265 294 10 173 169 169 156 163 181
238 208 61 341 248 223 226 112 199 136 316 295 282 270 276 274 257 229 238 214 243 225 218 236 237 237 182 206 212 192 229 237 281 283 280 248 160 56 4 179 174 157 149 163 175
290 186 41 301 216 273 219 345 358 278 227 276 276 281 276 298 279 255 247 244 46 290 226 224 231 232 232 177 239 252 219 238 229 218 240 296 310 92 108 169 179 140 146 142 157
359 23 81 283 266 173 140 201 294 280 298 293 276 270 288 280 272 240 256 274 311 256 261 179 219 239 229 215 194 233 231 248 249 249 249 240 215 124 144 188 172 163 147 144 146
288 225 116 69 356 312 310 245 264 164 279 308 299 267 269 254 236 277 270 262 331 294 17 287 254 231 243 212 205 207 228 224 244 228 230 213 275 213 169 193 182 164 155 151 154
346 56 12 16 98 328 282 308 272 264 239 271 229 279 321 274 249 252 266 309 277 44 262 251 245 254 245 273 272 231 217 219 224 240 248 244 227 237 199 190 175 157 153 153 153
355 336 326 337 301 278 150 177 294 314 276 264 264 322 294 274 303 309 323 296 289 338 330 276 260 257 259 247 245 236 239 238 222 241 248 237 265 238 117 159 159 162 159 161 163
22 62 290 99 309 279 30 3 333 322 264 273 292 293 278 307 318 289 283 279 277 283 294 285 260 240 243 239 231 234 236 229 229 227 237 233 236 171 172 176 174 169 167 161 165